Tracking 28790 objects as of 19-Apr-2024
HD Live streaming from Space Station
objects crossing your sky now

COSMOS 1691 DEB

Track COSMOS 1691 DEB now!
10-day predictions


NORAD ID: 16270
Int'l Code: 1985-094P
Perigee: 1,189.0 km
Apogee: 1,598.9 km
Inclination: 82.7 °
Period: 113.5 minutes
Semi major axis: 7764 km
RCS: 0.1103 m2 (medium)
Launch date: October 9, 1985
Source: Commonwealth of Independent States (former USSR) (CIS)
Launch site: PLESETSK MISSILE AND SPACE COMPLEX (PKMTR)

Note: This is SATELLITE DEBRIS
Your satellite tracking list
Your tracking list is empty




NASA's NSSDC Master Catalog

Two Line Element Set (TLE):
1 16270U 85094P   24109.51728109  .00000362  00000-0  15577-2 0  9999
2 16270  82.7268 125.7645 0263948  64.8764  54.4667 12.68797140781629
Source of the keplerian elements: AFSPC